Location: Innerarity Island Observatory
(30.3139°N, 87.4867°W)
Time: 23:41:37
(UTC-05:00)

OPAL - Visible Passes

Search period start: 02 September 2014 00:00
Search period end: 12 September 2014 00:00
Orbit: 745 x 796 km, 100.2° (Epoch: 02 September)

Date Brightness Start Highest point End Pass type
(mag) Time Alt. Az. Time Alt. Az. Time Alt. Az.
02 Sep 10.5 03:17:17 10° E 03:19:13 12° ENE 03:21:09 10° NE visible
02 Sep 7.4 04:52:29 10° S 04:57:28 63° WSW 05:02:33 10° NNW visible
03 Sep 8.2 04:17:26 10° SSE 04:22:20 54° ENE 04:27:19 10° N visible
03 Sep 9.1 05:59:11 10° WSW 06:01:27 13° W 06:03:44 10° WNW visible
04 Sep 9.7 03:43:28 10° ESE 03:47:23 23° ENE 03:51:21 10° NNE visible
04 Sep 8.1 05:21:32 10° SSW 05:26:01 32° W 05:30:35 10° NW visible
05 Sep 7.4 04:45:42 10° SSE 04:50:45 79° WSW 04:55:54 10° NNW visible
06 Sep 8.6 04:10:54 10° SE 04:15:40 43° ENE 04:20:31 10° N visible
06 Sep 8.9 05:51:29 10° SW 05:54:39 17° W 05:57:52 10° WNW visible
07 Sep 10.0 03:37:17 10° ESE 03:40:46 19° ENE 03:44:16 10° NNE visible
07 Sep 7.9 05:14:32 10° S 05:19:16 40° W 05:24:06 10° NNW visible
08 Sep 7.5 04:38:58 10° SSE 04:44:03 83° ENE 04:49:13 10° NNW visible
09 Sep 9.0 04:04:26 10° SE 04:09:00 35° ENE 04:13:39 10° N visible
09 Sep 8.7 05:44:06 10° SW 05:47:53 21° W 05:51:43 10° NW visible
10 Sep 10.3 03:31:16 10° E 03:34:09 15° ENE 03:37:04 10° NNE visible
10 Sep 7.6 05:07:36 10° S 05:12:32 51° WSW 05:17:33 10° NNW visible
11 Sep 7.8 04:32:19 10° SSE 04:37:21 67° ENE 04:42:30 10° N visible
